Temp
5 5 6 6 7 7 7 7 7 8 8 9 10 10 10 11 11 11 12 12 12 12 13 13 13 12 12 12 12 11 11 10 9 8 7 6 6 5 5 5 4 4 4 3
4 6 8 7 6 6 5 5 6 6 8 7 7 8 9 10 11 11 11 12 13 12 13 13 13 12 12 12 12 12 11 10 9 8 7 6 6 5 5 4 4 4 3 3
7 10 7 6 6 5 4 5 6 6 6 6 6 7 8 9 10 11 12 12 12 13 13 13 13 12 12 12 12 11 10 9 8 7 7 6 5 5 4 4 4 4 3 3
4 5 5 6 5 4 5 6 5 5 5 7 7 7 7 8 10 11 12 12 12 12 12 12 12 12 12 12 11 10 10 9 8 7 6 6 5 5 4 4 4 3 2 2
5 4 4 4 5 7 6 5 4 5 5 6 6 6 7 7 11 12 12 12 12 13 13 12 12 12 12 11 11 10 10 9 7 7 6 5 5 4 4 4 3 2 2 2
3 4 5 7 5 6 4 5 5 5 5 6 6 6 7 8 12 11 12 12 13 12 12 12 12 12 11 11 10 10 9 8 7 6 6 5 5 4 4 4 3 2 2 2
2 3 4 5 4 5 4 4 6 6 6 7 8 6 8 11 12 12 12 12 12 12 12 12 12 12 11 10 10 9 8 7 7 6 5 5 4 4 4 3 3 2 2 2
2 3 4 4 5 5 4 5 7 6 7 9 6 7 10 12 13 13 13 12 12 12 12 12 12 11 10 10 9 8 7 7 6 6 5 5 4 4 3 3 3 3 2 1
3 4 6 4 5 5 5 5 6 7 6 8 7 8 10 11 12 13 13 13 13 13 12 12 11 10 10 9 8 8 7 7 6 6 5 5 4 3 3 3 3 3 2 2
2 3 5 5 5 6 6 5 5 6 7 7 9 8 10 11 13 13 13 13 13 13 12 11 11 10 9 8 8 8 7 7 6 6 5 4 4 3 3 2 2 3 2 2
0 1 4 5 4 6 4 5 6 6 6 8 8 10 10 12 12 13 13 13 13 12 12 11 10 9 8 8 8 8 7 7 6 5 4 4 3 3 3 2 2 3 3 2
-1 1 3 5 5 5 5 6 5 7 5 7 8 9 11 11 12 13 13 13 12 12 11 11 10 9 9 8 8 8 7 6 6 5 4 4 4 3 3 3 3 3 3 2
-3 -1 3 5 4 5 5 6 6 6 6 6 7 9 11 11 12 12 12 13 12 11 11 10 10 9 9 8 8 7 7 6 5 5 4 4 3 3 3 3 3 3 3 3
-5 -3 1 6 6 5 5 5 5 6 7 7 7 9 11 12 12 12 11 12 12 12 11 10 10 9 9 8 8 7 7 6 5 5 4 4 4 3 3 3 3 3 3 3
-5 -3 -2 2 3 3 5 5 5 5 6 7 7 8 10 12 11 11 11 11 12 12 11 10 10 9 9 9 8 8 7 6 5 5 4 4 4 4 3 3 3 3 3 3
-5 -4 -2 1 2 1 3 4 5 5 6 6 7 7 8 10 11 11 12 11 12 11 11 10 10 9 9 9 8 8 7 6 5 5 4 4 4 4 3 3 3 3 3 3
-5 -5 -3 1 2 2 4 5 5 5 6 6 6 11 8 10 11 11 12 12 12 11 11 11 10 9 9 9 8 8 7 6 6 5 4 4 4 4 3 3 3 3 3 3
-5 -4 -3 -0 2 4 5 5 6 5 6 6 6 6 8 10 11 11 12 11 12 11 11 11 10 9 9 9 8 8 8 7 6 6 5 4 4 4 3 3 3 3 3 3
-5 -4 -3 -1 2 3 4 5 5 6 5 6 7 7 8 9 11 12 12 12 12 12 11 11 10 9 9 9 9 8 8 7 6 6 6 5 4 4 4 3 3 3 3 3
-4 -5 -4 -2 2 5 -1 2 5 6 4 5 7 8 9 10 10 11 12 12 12 12 11 11 10 10 9 9 9 9 8 8 7 7 6 5 5 4 4 4 4 4 4 3
-4 -4 -4 -2 -1 -1 0 3 4 3 2 4 7 8 9 10 11 11 12 12 12 12 11 11 11 10 9 10 9 9 8 8 7 7 6 6 5 5 5 4 4 4 4 3
-4 -4 -4 -2 -1 -1 -0 -0 -0 -1 -0 4 6 8 9 11 11 12 12 12 12 12 11 11 11 11 10 10 9 9 9 8 8 7 6 6 5 5 5 4 4 4 4 4
-4 -4 -4 -3 -3 -3 -3 -2 -1 -1 1 2 5 7 9 10 11 12 12 12 12 12 11 11 11 11 10 10 9 9 9 9 8 8 7 7 6 6 5 5 5 5 5 5
-5 -5 -4 -3 -3 -3 -2 -2 -1 -0 0 2 5 6 9 11 11 12 12 12 12 12 12 11 11 11 11 10 9 9 9 9 9 8 8 8 7 6 6 5 5 5 5 6
-5 -5 -4 -4 -3 -3 -3 -1 -1 -0 0 2 4 6 8 10 11 12 12 12 12 12 12 11 11 11 11 10 9 9 10 9 9 8 8 8 8 7 7 6 6 6 5 5
-5 -5 -5 -5 -4 -3 -3 -1 -1 -0 1 2 3 5 6 9 11 12 12 12 12 12 12 11 11 11 11 10 9 9 10 10 9 9 8 8 8 8 8 7 7 7 6 6
Height
3069 3075 3057 3067 3075 3082 3088 3090 3088 3094 3098 3101 3096 3094 3094 3099 3097 3096 3095 3093 3092 3094 3094 3094 3093 3093 3094 3095 3094 3094 3094 3095 3096 3096 3096 3094 3092 3088 3086 3083 3079 3076 3072 3069
3061 3046 3054 3070 3073 3077 3080 3082 3083 3087 3090 3092 3090 3085 3087 3091 3089 3089 3087 3086 3088 3088 3088 3088 3088 3089 3089 3090 3089 3088 3088 3090 3091 3091 3090 3089 3086 3084 3081 3078 3076 3073 3069 3066
3033 3017 3056 3062 3066 3068 3069 3073 3078 3083 3086 3085 3084 3077 3079 3081 3080 3081 3080 3080 3082 3082 3083 3083 3084 3084 3084 3084 3083 3083 3084 3085 3086 3086 3086 3084 3081 3080 3077 3075 3073 3069 3065 3062
3031 3040 3044 3050 3053 3061 3061 3069 3076 3080 3084 3079 3082 3068 3072 3072 3070 3072 3072 3073 3077 3077 3077 3078 3078 3079 3078 3077 3076 3077 3079 3081 3082 3082 3081 3079 3078 3076 3074 3072 3068 3064 3062 3059
3010 3024 3034 3038 3042 3054 3057 3070 3072 3076 3077 3077 3076 3074 3062 3064 3059 3061 3065 3068 3071 3071 3071 3072 3072 3073 3073 3072 3072 3074 3076 3077 3078 3078 3076 3075 3074 3072 3070 3068 3063 3061 3058 3056
3018 3021 3028 3029 3042 3048 3059 3068 3071 3072 3074 3068 3068 3070 3056 3055 3052 3053 3058 3063 3065 3066 3066 3066 3068 3069 3069 3069 3070 3072 3074 3075 3075 3073 3072 3071 3070 3069 3068 3064 3060 3057 3055 3054
3012 3016 3018 3027 3037 3045 3053 3062 3066 3067 3066 3055 3057 3061 3044 3046 3049 3050 3055 3058 3061 3063 3063 3064 3066 3066 3067 3067 3068 3069 3071 3072 3071 3070 3069 3067 3067 3067 3064 3060 3057 3054 3052 3053
3005 3009 3009 3014 3022 3030 3041 3048 3050 3055 3052 3049 3050 3051 3037 3042 3045 3049 3052 3054 3056 3058 3060 3061 3063 3064 3064 3065 3066 3067 3068 3068 3067 3067 3065 3066 3066 3064 3061 3059 3055 3053 3052 3052
2998 3000 3002 3009 3018 3027 3035 3037 3047 3049 3051 3048 3045 3041 3036 3037 3041 3046 3049 3050 3052 3055 3057 3060 3060 3062 3062 3063 3064 3065 3065 3064 3064 3064 3064 3064 3064 3062 3060 3058 3055 3053 3053 3053
2993 2997 2997 3004 3014 3019 3024 3036 3042 3046 3047 3045 3039 3039 3037 3034 3038 3043 3045 3046 3049 3051 3055 3057 3058 3059 3060 3061 3062 3063 3062 3062 3062 3062 3063 3062 3061 3060 3058 3057 3055 3054 3054 3055
2991 2993 2993 2999 2996 3004 3017 3023 3030 3038 3039 3037 3036 3031 3032 3034 3038 3040 3043 3044 3046 3050 3053 3055 3056 3057 3058 3058 3060 3060 3060 3061 3060 3061 3061 3061 3060 3058 3057 3056 3055 3055 3056 3057
2987 2989 2988 2988 2997 3002 3007 3012 3020 3025 3032 3034 3034 3030 3028 3032 3035 3038 3041 3042 3045 3049 3052 3053 3054 3055 3056 3057 3058 3059 3059 3059 3059 3060 3060 3059 3059 3057 3056 3055 3054 3056 3058 3059
2983 2987 2985 2988 2995 2998 3000 3009 3015 3021 3025 3027 3031 3028 3029 3030 3034 3037 3039 3040 3044 3048 3051 3051 3053 3054 3055 3056 3057 3058 3058 3058 3058 3059 3059 3059 3058 3057 3056 3055 3055 3057 3059 3061
2979 2980 2981 2980 2986 2990 2995 3004 3012 3017 3020 3022 3020 3026 3026 3028 3032 3035 3037 3040 3043 3047 3049 3050 3052 3053 3054 3055 3056 3057 3057 3056 3057 3058 3059 3058 3058 3058 3057 3056 3057 3059 3061 3063
2977 2978 2981 2979 2984 2988 2992 3000 3006 3011 3015 3016 3020 3021 3022 3025 3029 3032 3035 3040 3042 3046 3048 3049 3050 3051 3053 3053 3054 3056 3055 3056 3057 3058 3058 3059 3060 3060 3059 3059 3060 3062 3064 3065
2976 2978 2978 2980 2983 2988 2991 2996 3001 3005 3009 3013 3017 3015 3019 3023 3026 3030 3035 3038 3041 3044 3047 3047 3049 3050 3052 3052 3054 3055 3055 3055 3057 3058 3059 3060 3061 3063 3063 3063 3063 3064 3066 3067
2977 2978 2978 2981 2980 2987 2990 2991 2997 3001 3004 3010 3011 3006 3019 3020 3022 3027 3033 3037 3040 3043 3045 3046 3047 3049 3051 3051 3053 3054 3054 3055 3057 3058 3059 3061 3063 3065 3066 3067 3067 3068 3068 3069
2976 2976 2977 2979 2981 2982 2984 2987 2992 2998 2999 3001 3005 3009 3010 3014 3018 3022 3028 3033 3039 3042 3044 3046 3046 3048 3049 3050 3052 3053 3054 3055 3057 3058 3060 3062 3064 3066 3068 3069 3070 3071 3071 3071
2973 2975 2975 2976 2978 2979 2981 2983 2986 2991 2995 2997 3001 3002 3006 3010 3015 3020 3024 3030 3035 3040 3044 3045 3046 3047 3049 3050 3052 3053 3054 3055 3057 3058 3061 3063 3065 3067 3069 3071 3072 3073 3073 3073
2971 2971 2974 2976 2975 2971 2979 2978 2981 2986 2991 2992 2995 2998 3001 3005 3011 3017 3020 3025 3031 3035 3042 3044 3045 3045 3047 3049 3051 3053 3055 3055 3057 3059 3062 3064 3067 3069 3071 3073 3073 3074 3074 3075
2968 2967 2971 2974 2974 2977 2975 2975 2979 2986 2991 2987 2990 2993 2997 3001 3007 3012 3017 3022 3028 3032 3038 3041 3043 3044 3046 3048 3051 3053 3055 3055 3058 3060 3062 3065 3067 3070 3072 3074 3074 3075 3076 3077
2967 2967 2970 2973 2973 2979 2975 2974 2978 2982 2981 2984 2986 2990 2994 2997 3003 3008 3014 3019 3024 3029 3034 3038 3041 3042 3044 3046 3049 3052 3054 3055 3057 3060 3061 3064 3067 3070 3072 3074 3076 3077 3078 3079
2969 2968 2967 2969 2971 2975 2974 2974 2976 2979 2980 2982 2984 2986 2990 2994 2999 3004 3010 3016 3021 3026 3030 3034 3038 3041 3042 3045 3048 3051 3053 3055 3057 3059 3061 3063 3066 3069 3072 3074 3076 3077 3079 3080
2967 2967 2968 2968 2971 2973 2974 2975 2977 2979 2979 2980 2982 2983 2986 2991 2995 3000 3006 3012 3017 3022 3026 3031 3035 3038 3041 3043 3046 3049 3052 3055 3057 3059 3061 3063 3065 3068 3070 3073 3075 3078 3079 3081
2970 2970 2969 2968 2969 2972 2975 2976 2976 2977 2978 2978 2979 2980 2982 2986 2991 2996 3002 3009 3014 3018 3022 3027 3031 3035 3039 3041 3044 3046 3049 3053 3055 3058 3060 3062 3065 3067 3070 3072 3075 3077 3079 3082
2974 2973 2971 2970 2971 2971 2974 2975 2976 2976 2978 2978 2978 2979 2979 2981 2987 2991 2997 3004 3010 3014 3018 3023 3027 3032 3037 3040 3042 3044 3047 3050 3054 3056 3058 3061 3064 3066 3069 3071 3074 3076 3078 3080
Wind_Speed
49 42 65 61 55 50 41 36 41 37 36 36 47 44 44 47 44 38 40 26 19 20 19 20 16 16 19 21 25 26 27 31 31 30 26 24 27 26 27 26 25 25 21 20
44 64 61 53 51 54 45 38 35 28 37 34 33 44 46 43 43 42 39 24 17 16 15 18 16 17 20 23 25 28 27 26 30 30 25 25 25 24 26 24 24 23 22 21
64 73 54 49 48 48 46 43 39 34 29 29 28 40 37 40 36 28 29 21 15 9 11 16 20 22 21 26 27 23 21 22 26 26 24 25 22 24 24 23 23 22 20 18
53 50 37 47 51 38 44 46 37 33 24 28 16 25 30 34 39 34 28 24 17 17 18 23 19 21 22 25 21 16 16 20 22 22 23 21 21 24 22 22 23 20 19 15
49 36 43 34 39 46 42 25 27 28 28 27 26 19 23 23 34 28 19 23 19 22 25 23 20 18 17 15 12 12 13 16 18 20 21 19 22 21 20 22 22 19 17 9
33 22 33 56 33 34 20 15 14 13 14 17 24 18 26 35 26 17 10 14 12 10 7 6 8 11 12 12 10 11 11 13 17 18 17 19 18 17 19 21 20 14 10 6
25 26 28 31 27 24 25 20 8 8 9 10 18 18 35 27 14 5 11 9 11 9 4 6 8 11 8 7 9 9 9 13 15 15 16 15 13 15 16 15 14 12 6 4
25 17 35 25 34 28 35 33 14 7 6 10 6 12 20 12 13 6 4 5 7 13 8 10 8 9 8 8 8 8 11 12 14 13 12 11 12 13 10 11 10 5 3 6
21 22 22 32 28 31 28 39 24 9 4 7 5 11 20 17 14 10 5 4 9 11 13 8 5 8 9 9 8 9 10 13 11 10 9 10 10 8 5 9 8 3 4 6
15 16 27 29 30 32 32 31 19 19 9 9 7 8 13 3 9 8 6 4 8 10 15 6 7 10 11 10 8 8 11 8 9 8 8 8 8 4 6 9 5 2 5 9
26 6 20 26 35 36 28 31 19 20 12 5 3 8 14 13 6 6 3 3 6 13 12 8 9 10 9 7 7 10 9 8 8 6 7 7 6 6 7 5 1 4 8 11
18 14 9 38 26 28 34 35 32 20 13 20 7 8 4 9 6 7 5 0 11 13 9 11 9 7 4 6 7 9 8 8 6 5 6 5 3 4 3 3 4 8 10 11
11 14 18 9 12 30 36 33 32 20 14 25 14 7 15 5 10 3 2 2 15 8 6 7 5 6 4 6 8 9 6 6 5 5 3 1 2 3 3 5 7 11 11 12
7 14 22 16 20 11 38 36 30 27 19 16 33 18 13 10 8 5 8 16 15 5 4 3 5 6 4 7 10 8 5 5 5 5 5 5 5 6 7 10 9 12 11 10
1 8 18 30 12 9 19 29 36 34 29 22 13 29 24 15 10 8 10 22 15 6 2 5 7 6 4 7 9 7 5 6 6 6 7 7 8 10 13 14 14 14 12 11
14 1 7 28 26 14 10 13 21 35 39 39 28 25 26 25 18 12 5 25 16 10 5 6 7 8 4 7 8 6 5 7 8 9 8 10 12 12 13 14 15 14 12 12
8 7 3 8 19 18 15 19 12 13 26 32 35 37 29 29 21 17 7 24 16 12 4 5 3 4 3 8 8 6 6 8 10 11 11 14 15 15 14 13 12 9 9 8
3 4 3 5 12 15 14 18 21 17 15 23 34 23 21 32 24 18 13 24 14 15 7 6 4 5 3 10 10 7 8 10 11 12 12 13 16 11 9 10 11 10 10 8
4 1 3 4 9 7 16 16 19 19 22 25 20 24 31 21 21 17 17 21 14 12 10 4 3 4 3 10 10 8 10 12 13 14 12 11 13 11 13 11 8 8 7 7
12 7 9 4 5 6 3 9 20 22 17 15 24 26 25 29 24 19 22 22 19 18 15 8 6 7 7 12 12 10 10 13 14 16 14 12 11 12 11 8 6 6 7 9
5 7 20 6 2 2 5 9 15 15 8 12 20 25 22 28 28 20 25 26 21 20 21 14 6 2 6 13 13 12 11 13 14 17 18 15 12 12 10 7 5 6 8 9
2 3 8 5 4 5 8 15 10 8 10 12 17 22 25 28 29 24 28 27 26 20 23 20 10 5 9 12 17 14 13 14 14 15 17 17 15 12 10 8 6 6 8 9
2 5 3 3 7 14 17 17 15 6 4 15 16 18 24 26 28 30 25 26 25 22 25 25 14 8 10 11 19 16 16 14 14 14 14 15 17 16 13 10 8 8 8 9
7 7 7 8 16 15 10 11 10 7 3 6 17 18 20 26 28 29 26 24 26 24 21 28 22 14 8 12 12 19 17 14 15 15 14 14 14 14 14 14 13 12 11 10
9 8 8 11 20 15 8 7 9 7 6 7 12 15 19 21 26 30 29 27 28 26 25 30 26 21 12 14 13 19 20 17 15 16 17 16 15 15 14 14 14 15 14 14
7 8 9 5 10 9 8 6 6 7 9 9 12 12 14 21 24 31 33 31 29 23 27 28 33 26 18 16 17 16 19 19 18 16 16 17 16 16 15 15 16 17 18 18
Wind_Direction
225 223 226 226 231 241 242 247 251 254 257 259 260 268 276 277 276 287 294 278 256 270 267 263 283 261 258 258 262 269 265 263 270 272 275 288 294 298 303 299 304 314 310 308
215 229 234 235 237 241 239 243 247 251 251 259 270 273 277 276 278 287 287 269 258 277 257 255 263 256 268 270 271 273 266 266 266 268 277 289 293 299 299 295 304 309 304 307
218 235 228 232 233 233 235 238 244 248 259 264 276 279 283 281 280 279 271 259 251 264 259 261 267 269 266 273 277 271 261 257 264 268 281 288 291 298 292 293 303 304 302 306
224 226 228 231 229 225 236 242 247 250 258 263 274 287 277 276 275 271 266 249 242 262 264 263 275 265 271 274 266 246 243 257 263 272 282 285 296 292 292 297 303 300 307 298
221 216 211 216 222 233 242 240 243 248 249 270 265 270 279 286 276 274 260 231 246 265 274 267 265 266 266 241 222 229 245 257 267 276 282 291 293 290 295 300 299 303 304 293
222 230 223 230 224 234 220 228 222 230 244 254 263 254 280 276 283 279 216 209 232 255 250 245 252 267 257 230 233 237 247 261 273 277 283 293 287 294 298 302 310 308 294 265
222 213 214 213 205 211 202 192 209 227 221 249 262 239 256 282 281 119 158 189 238 232 252 277 265 286 260 244 239 234 252 271 273 279 291 286 290 293 302 317 316 311 278 208
211 202 206 200 202 195 199 199 180 205 217 251 224 218 260 284 223 154 190 275 246 219 229 249 265 255 247 240 233 240 272 264 280 290 283 285 285 296 313 337 334 327 175 200
207 221 213 211 197 196 189 202 205 239 269 279 190 259 285 271 230 192 201 265 209 224 212 230 254 243 237 236 233 264 261 279 286 280 277 276 286 299 323 337 353 29 130 162
221 220 216 204 197 219 211 206 196 208 221 236 241 281 254 329 180 188 210 328 207 236 206 253 237 237 228 230 245 257 271 276 280 272 272 272 275 276 331 336 1 95 143 155
225 267 186 181 198 194 192 194 200 196 206 207 279 249 260 237 255 182 211 300 225 200 196 226 232 225 219 231 231 266 262 266 266 266 266 268 260 296 320 341 106 151 154 152
204 231 231 204 211 201 200 198 193 188 196 214 232 254 81 181 227 213 148 244 171 172 198 223 223 227 248 233 243 244 261 257 255 261 261 271 290 331 2 63 133 157 159 155
197 216 220 165 189 206 205 203 198 202 196 199 199 236 230 217 150 163 172 233 174 178 223 203 239 225 259 230 221 236 258 241 229 244 230 187 51 49 68 100 119 154 155 159
188 211 217 207 196 193 203 204 202 200 205 207 216 225 197 138 125 25 335 184 172 183 202 204 226 221 260 217 211 233 247 208 206 206 174 125 98 89 95 108 115 143 153 156
44 208 226 218 196 160 185 202 207 207 214 220 224 229 229 202 234 312 358 183 176 189 250 229 225 220 258 215 212 231 230 185 189 176 150 131 114 105 111 110 116 126 139 139
12 95 247 222 226 242 215 184 212 214 222 230 233 246 239 227 250 266 304 191 184 181 186 221 224 222 253 205 207 221 209 178 174 162 142 135 132 122 114 117 118 123 127 128
4 346 247 209 234 240 241 216 203 204 228 226 226 239 247 238 235 254 267 201 192 188 190 234 268 218 255 194 202 207 195 173 168 154 142 140 135 130 120 111 123 136 135 121
311 2 164 212 166 214 210 211 219 218 225 225 231 240 246 244 239 248 245 209 207 199 204 220 249 220 235 192 200 198 182 171 165 154 153 148 158 149 152 130 129 118 119 126
202 221 194 191 192 149 181 206 205 195 220 231 233 240 234 230 233 215 225 196 199 221 203 212 242 193 232 197 196 188 177 167 168 155 154 153 155 151 147 139 125 119 125 136
220 256 206 202 210 190 273 187 196 202 190 241 234 236 230 222 231 222 211 192 203 194 195 207 234 246 217 200 193 187 171 162 166 162 154 153 146 148 155 150 129 109 107 132
339 152 188 196 110 115 30 185 179 180 219 235 227 229 225 219 212 211 211 198 198 195 192 198 183 218 229 203 196 188 172 158 168 175 166 162 160 159 159 154 134 112 108 120
132 153 170 182 146 132 154 133 162 167 228 211 222 221 221 216 209 209 210 204 206 201 195 197 201 226 226 213 197 193 177 170 172 181 177 176 178 176 170 168 153 124 116 120
69 87 98 154 117 106 95 110 134 116 174 226 218 217 216 213 210 209 210 210 197 205 197 198 204 205 224 204 201 194 199 179 175 178 184 181 185 188 190 184 169 153 138 139
64 69 42 124 130 106 90 122 140 166 188 204 219 222 212 210 209 209 206 203 202 211 210 199 202 208 207 204 191 192 203 194 187 181 184 188 185 185 185 184 179 170 159 156
52 48 61 69 135 101 84 136 166 178 193 193 209 226 222 210 210 204 200 203 203 212 218 204 208 211 208 193 197 199 202 199 196 197 191 189 188 186 189 185 178 172 171 172
46 50 42 8 34 118 90 124 161 180 200 218 204 212 230 224 213 205 201 203 206 212 212 211 210 206 197 190 207 209 207 202 203 205 205 201 194 187 188 189 190 184 180 181